Regional Weather Roundup
Issued by NWS Upton, NY

Current Version | Previous Version | Text Only | Print | Product List | Glossary On
Versions: 1 2 3 4 5 6 7 8 9 10 11 12 13 14 15 16 17 18 19 20 21 22 23 24 25 26 27 28 29 30 31 32 33 34 35 36 37 38 39 40 41 42 43 44 45 46 47 48 49 50
000
ASUS41 KOKX 212005
RWROKX

REGIONAL WEATHER ROUNDUP
NATIONAL WEATHER SERVICE NEW YORK NY
400 PM EDT SUN SEP 21 2014

NOTE: "FAIR" INDICATES FEW OR NO CLOUDS BELOW 12,000 FEET WITH NO
SIGNIFICANT WEATHER AND/OR OBSTRUCTIONS TO VISIBILITY.

NYZ071-072-176-178-NJZ106-104-212100-
NEW YORK CITY METRO AREA


CITY           SKY/WX    TMP DP  RH WIND       PRES   REMARKS
CENTRAL PARK   CLOUDY    74  67  78 CALM      29.71F
LAGUARDIA APRT CLOUDY    74  67  78 NE3       29.68F
KENNEDY INTL   CLOUDY    74  68  81 S3        29.69F
NEWARK/LIBERTY CLOUDY    76  67  73 VRB5      29.68F
BRNX BOT. GARD   N/A     73  68  83 E1        29.69F
TETERBORO      CLOUDY    76  66  71 SE7       29.66F
$$

NYZ177-179-078>081-212100-
LONG ISLAND NEW YORK

CITY           SKY/WX    TMP DP  RH WIND       PRES   REMARKS
FARMINGDALE    CLOUDY    77  69  76 S3        29.69F
ISLIP          CLOUDY    75  68  78 S7        29.67F
SHIRLEY        CLOUDY    75  70  84 S6        29.70F
WESTHAMPTON    CLOUDY    75  71  87 S7        29.70F
MONTAUK POINT    N/A     70  67  90 SE9       29.71F
$$

NYZ052-065-067-212100-
HUDSON VALLEY

CITY           SKY/WX    TMP DP  RH WIND       PRES   REMARKS
WHITE PLAINS   CLOUDY    73  68  84 CALM      29.69F
NEWBURGH       PTSUNNY   77  68  73 SE9       29.68F
MONTGOMERY     PTSUNNY   79  66  64 S7        29.66F
POUGHKEEPSIE   PTSUNNY   77  66  68 SE7       29.66F
ALBANY         PTSUNNY   79  64  60 S13G25    29.63F
$$

NJZ001-105-106-008-010-013-015-019>022-104-212100-
NEW JERSEY

CITY           SKY/WX    TMP DP  RH WIND       PRES   REMARKS
NEWARK/LIBERTY CLOUDY    76  67  73 VRB5      29.68F
TETERBORO      CLOUDY    76  66  71 SE7       29.66F
CALDWELL       PTSUNNY   76  65  68 VRB7      29.68F
MORRISTOWN     PTSUNNY   77  68  73 S6        29.68F
SOMERVILLE     CLOUDY    80  64  58 VRB5      29.66F
LINDEN         FAIR      80  68  67 S5        29.70F
SUSSEX         PTSUNNY   80  57  45 SW6       29.67F
ANDOVER          N/A     77  54  44 SW5       29.68F
TRENTON        CLOUDY    77  64  64 SE3       29.68F
MILLVILLE      CLOUDY    76  67  73 CALM      29.68F
ATLANTIC CITY  CLOUDY    74  69  85 N5        29.68F
WRIGHTSTOWN    LGT RAIN  75  68  79 E5        29.65F
TOMS RIVER     CLOUDY    73  68  83 N6        29.68F
BELMAR         CLOUDY    72  66  83 NE5       29.68F
$$

PAZ047>061-062-071-212100-
EASTERN PENNSYLVANIA

CITY           SKY/WX    TMP DP  RH WIND       PRES   REMARKS
PHILADELPHIA   PTSUNNY   77  65  66 SE5       29.68F
ALLENTOWN      MOSUNNY   81  59  47 VRB5      29.67F
SCRANTON       MOSUNNY   81  58  45 SW7G17    29.65F
$$

CTZ002-004>006-009-010-012-RIZ004-006-007-MAZ004-011-015-212100-
SOUTHERN NEW ENGLAND
 IN CT

CITY           SKY/WX    TMP DP  RH WIND       PRES   REMARKS
BRADLEY INTL   CLOUDY    78  69  73 S7        29.68F
HARTFORD       CLOUDY    75  70  84 SE12      29.68F
DANBURY        LGT RAIN  72  69  90 S5        29.70F FOG
WTRBRY/OXFORD  CLOUDY    73  66  78 SW85      29.73F
BRIDGEPORT     CLOUDY    77  69  76 SW6       29.69F
MERIDEN        CLOUDY    76  68  76 S7        29.68F
NEW HAVEN      CLOUDY    77  70  79 S3        29.69F
CHESTER        MOCLDY    73  72  94 SE6       29.72F
GROTON         CLOUDY    71  70  96 SE8       29.69F FOG
WILLIMANTIC    CLOUDY    75  70  84 MISG      29.71F

 IN RI

CITY           SKY/WX    TMP DP  RH WIND       PRES   REMARKS
PROVIDENCE     LGT RAIN  73  69  87 S10       29.72F
BLOCK ISLAND   CLOUDY    72  66  83 S14       29.70F
WESTERLY       CLOUDY    72  69  90 SE8       29.71F

 IN MA

CITY           SKY/WX    TMP DP  RH WIND       PRES   REMARKS
BOSTON         CLOUDY    71  65  81 E7        29.71F
WORCESTER      LGT RAIN  71  68  90 S8        29.74F
WESTFIELD      CLOUDY    77  69  76 SW7       29.69F
PROVINCETOWN   CLOUDY    72  68  88 SE10      29.73F
NANTUCKET      LGT RAIN  67  66  97 SE10      29.72F FOG
$$

ANZ330-335-338-340-345-350-353-355-212100-
COASTAL MARINE OBSERVATIONS


STATION/POSITION TIME  SKY/WX   TEMP    WIND        PRES    VSBY  WAVE
                                AIR SEA DIR/SP/G                  HT/PER
                 (UTC)          (F)     (DEG/KT/KT) (MB)    (MI)  (FT/S)
NY HARB ENTRANCE 2000            71 71  340/  4/  6 1005.9          4/ 8
4S FIRE IS       2000               71                N/A           4/ 7
20S FIRE ISLAND  2000            70 70   20/  2/  4 1005.5          4/ 8
23SW MTP         2000                                 N/A           5/ 6
HUDSON CANYON    2000            71 71   70/ 12/ 14 1003.6          4/ 8
EXECUTION ROCKS  2000            72 71  170/  4/  6   N/A
WESTERN LI SOUND 2000            72     110/  2/  4   N/A           1
CENTRAL LI SOUND 1900            71 71  170/  6/  6   N/A           1
EASTERN LI SOUND 1900            70 68  120/  8/ 10   N/A
ROBBINS REEF     2000            72     100/  3/  4 1004.1
$$


>>>>>>>>>>>>>>>>>>>>>>>>>>>> KEY <<<<<<<<<<<<<<<<<<<<<<<<<<<
>                                                          <
>     SKY/WX - SKY CONDITION/PRESENT WEATHER               <
>     TMP    - TEMPERATURE IN FAHRENHEIT                   <
>     DP     - DEWPOINT IN FAHRENHEIT                      <
>     RH     - RELATIVE HUMIDITY IN PERCENT                <
>     WIND   - DIRECTION AND SPEED IN MPH                  <
>     PRES   - MEAN SEA LEVEL PRESSURE IN INCHES OF HG     <
>     WCI    - WIND CHILL INDEX                            <
>     VSB    - VISIBILITY IN MILES                         <
>     HX     - HEAT INDEX                                  <
>     TC     - TEMPERATURE IN CELSIUS                      <
>     VRB    - VARIABLE WIND DIRECTION                     <
>                                                          <
>>>>>>>>>>>>>>>>>>>>>>>>>>>> KEY <<<<<<<<<<<<<<<<<<<<<<<<<<<





USA.gov is the U.S. government's official web portal to all federal, state and local government web resources and services.